Time[GMT],current_u[cm/s](10m),current_v[cm/s](10m),current_u[cm/s](14m),current_v[cm/s](14m),current_u[cm/s](18m),current_v[cm/s](18m),current_u[cm/s](22m),current_v[cm/s](22m),current_u[cm/s](26m),current_v[cm/s](26m),current_u[cm/s](30m),current_v[cm/s](30m),current_u[cm/s](34m),current_v[cm/s](34m),current_u[cm/s](38m),current_v[cm/s](38m),current_u[cm/s](42m),current_v[cm/s](42m),current_u[cm/s](46m),current_v[cm/s](46m),current_u[cm/s](50m),current_v[cm/s](50m),current_u[cm/s](54m),current_v[cm/s](54m),current_u[cm/s](58m),current_v[cm/s](58m),current_u[cm/s](62m),current_v[cm/s](62m),current_u[cm/s](66m),current_v[cm/s](66m),current_u[cm/s](70m),current_v[cm/s](70m),current_u[cm/s](74m),current_v[cm/s](74m),current_u[cm/s](78m),current_v[cm/s](78m),current_u[cm/s](82m),current_v[cm/s](82m),current_u[cm/s](86m),current_v[cm/s](86m),current_u[cm/s](90m),current_v[cm/s](90m)
2003-09-25 15:00,-29.45,99.03,-1.69,12.89,0.57,61.79,-7.88,53.74,-10.02,43.30,-17.79,69.69,-13.87,62.33,-20.71,66.34,-32.49,67.73,-19.13,76.19,-21.87,86.76,-20.72,82.50,-8.88,52.27,-13.07,61.12,-17.47,74.62,-19.67,77.90,-19.80,75.34,-20.28,77.50,-13.31,52.64,-24.46,53.39,-13.18,60.14
2003-09-25 16:00,-23.23,-11.07,-26.95,-12.57,-19.77,-9.45,-22.01,-11.95,-18.23,-12.63,-15.05,-16.66,-16.00,-18.95,-17.67,-18.33,-19.31,-17.80,-16.21,-17.65,-13.94,-21.13,-11.32,-23.76,-8.06,-25.76,-7.24,-26.03,-9.19,-25.18,-10.92,-24.05,-13.11,-24.75,-11.53,-24.77,-8.80,-19.49,-6.68,-16.93,-7.39,-13.69
2003-09-25 17:00,-25.42,-18.07,-21.33,-19.70,-11.63,-15.88,-13.76,-21.38,-14.43,-24.22,-14.80,-25.70,-16.15,-25.40,-18.49,-25.31,-18.82,-28.56,-18.25,-28.69,-16.92,-30.58,-15.41,-31.36,-14.03,-32.07,-14.28,-31.94,-15.18,-28.77,-19.50,-27.10,-22.42,-25.82,-25.80,-23.44,-28.23,-22.74,-25.78,-21.54,-17.40,-19.50
2003-09-25 18:00,8.31,16.08,8.31,16.08,8.31,16.08,8.31,16.08,8.31,16.08,8.31,16.08,8.31,16.08,8.31,16.08,8.31,16.08,8.31,16.08,8.31,16.08,8.31,16.08,8.31,16.08,8.31,16.08,8.31,16.08,8.31,16.08,8.31,16.08,8.31,16.08,8.31,16.08,8.31,16.08,8.31,16.08
2003-09-25 19:00,8.31,16.08,8.31,16.08,8.31,16.08,8.31,16.08,8.31,16.08,8.31,16.08,8.31,16.08,8.31,16.08,8.31,16.08,8.31,16.08,8.31,16.08,8.31,16.08,8.31,16.08,8.31,16.08,8.31,16.08,8.31,16.08,8.31,16.08,8.31,16.08,8.31,16.08,8.31,16.08,8.31,16.08
2003-09-25 20:00,8.31,16.08,8.31,16.08,8.31,16.08,8.31,16.08,8.31,16.08,8.31,16.08,8.31,16.08,8.31,16.08,8.31,16.08,8.31,16.08,8.31,16.08,8.31,16.08,8.31,16.08,8.31,16.08,8.31,16.08,8.31,16.08,8.31,16.08,8.31,16.08,8.31,16.08,8.31,16.08,8.31,16.08
2003-09-25 21:00,-4.72,-15.15,-6.69,-10.63,-5.42,-3.09,-10.27,-8.62,-13.15,-11.11,-14.28,-10.53,-15.25,-10.11,-15.87,-11.46,-16.94,-13.69,-17.39,-14.25,-19.01,-16.44,-19.43,-17.74,-18.53,-16.29,-17.30,-14.22,-13.72,-7.00,-11.16,-1.88,-8.83,-2.92,-9.46,-7.21,-9.95,-8.63,-6.67,-9.37,-2.41,-7.91
2003-09-25 22:00,8.31,16.08,8.31,16.08,8.31,16.08,8.31,16.08,8.31,16.08,8.31,16.08,8.31,16.08,8.31,16.08,8.31,16.08,8.31,16.08,8.31,16.08,8.31,16.08,8.31,16.08,8.31,16.08,8.31,16.08,8.31,16.08,8.31,16.08,8.31,16.08,8.31,16.08,8.31,16.08,8.31,16.08
2003-09-25 23:00,-0.27,-5.75,-0.32,-0.31,-2.89,3.80,-2.85,4.66,-4.15,8.75,-6.46,11.38,-8.12,12.32,-9.27,13.94,-9.25,15.21,-8.25,17.00,-5.91,16.59,-2.79,16.32,0.33,15.11,3.76,13.58,5.05,13.78,6.03,15.67,6.81,17.18,8.70,19.14,11.03,21.04,13.03,23.36,15.55,22.69
2003-09-26 00:00,1.32,-10.39,-1.49,-7.19,-3.76,0.59,-1.01,-2.11,-0.69,2.51,-2.24,7.68,-0.97,10.29,-1.36,14.15,0.77,15.04,3.81,15.07,7.13,12.56,9.26,11.45,8.91,13.54,8.03,14.31,7.06,15.05,7.86,17.51,10.91,18.80,12.99,18.20,16.21,17.65,20.75,19.20,25.17,21.14
2003-09-26 01:00,-2.72,-0.03,-2.48,1.52,0.05,6.42,-1.52,6.76,-1.04,9.53,-1.45,12.45,-0.21,14.84,1.19,16.02,2.11,15.78,1.58,16.77,-4.20,19.44,-7.61,21.92,-6.45,23.55,-3.53,24.27,0.68,24.88,6.37,24.80,13.38,23.57,18.81,21.00,22.36,18.77,23.08,18.16,24.71,17.32
2003-09-26 02:00,8.31,16.08,8.31,16.08,8.31,16.08,8.31,16.08,8.31,16.08,8.31,16.08,8.31,16.08,8.31,16.08,8.31,16.08,8.31,16.08,8.31,16.08,8.31,16.08,8.31,16.08,8.31,16.08,8.31,16.08,8.31,16.08,8.31,16.08,8.31,16.08,8.31,16.08,8.31,16.08,8.31,16.08
2003-09-26 03:00,-17.82,-10.29,-16.34,-8.98,-12.16,-3.66,-11.55,-7.56,-10.22,-4.83,-9.50,-3.13,-8.87,-3.46,-7.71,-4.13,-7.65,-4.64,-7.73,-3.41,-7.59,-6.82,-7.01,-6.33,-4.96,-4.20,-2.28,-2.72,-1.88,-3.33,-1.27,-4.92,0.89,-6.75,1.29,-7.67,0.22,-9.27,-2.19,-7.94,-6.64,-4.84
2003-09-26 04:00,-32.80,-10.03,-32.40,-13.26,-27.59,-12.88,-34.23,-17.73,-32.57,-20.66,-27.94,-20.34,-23.37,-18.88,-19.61,-19.16,-12.88,-17.54,-7.86,-15.83,-7.10,-17.58,-4.63,-19.74,-3.93,-22.24,-4.55,-20.97,-4.87,-18.97,-2.74,-18.40,-1.75,-19.55,-1.01,-20.89,-2.41,-21.44,-2.71,-22.80,-2.30,-20.78
2003-09-26 05:00,-26.74,-41.26,-26.43,-39.27,-17.71,-28.10,-25.18,-35.94,-25.65,-40.08,-20.47,-40.84,-18.34,-39.95,-15.73,-38.91,-12.44,-36.71,-11.28,-35.08,-10.40,-37.84,-8.63,-39.80,-9.51,-37.35,-12.29,-32.57,-15.41,-28.73,-16.49,-26.66,-17.36,-25.89,-19.34,-24.95,-21.76,-23.93,-23.85,-23.65,-22.20,-20.92
2003-09-26 06:00,-23.57,-28.81,-20.85,-28.79,-15.81,-23.82,-18.11,-32.43,-18.92,-35.83,-17.27,-38.04,-14.25,-38.96,-12.49,-39.87,-10.23,-39.36,-9.83,-39.65,-10.32,-41.07,-9.84,-42.91,-9.00,-41.28,-9.37,-38.46,-11.08,-36.06,-13.36,-33.85,-14.45,-32.73,-14.33,-30.80,-11.38,-27.87,-8.25,-25.51,-1.73,-20.60
2003-09-26 07:00,-21.85,-32.88,-22.99,-30.62,-16.00,-26.19,-23.76,-31.18,-26.69,-35.48,-26.03,-40.20,-23.90,-41.93,-22.53,-43.60,-19.07,-44.91,-15.48,-43.66,-14.92,-44.11,-16.66,-44.56,-18.43,-44.60,-18.45,-43.87,-18.70,-41.12,-17.30,-37.62,-13.69,-35.11,-9.16,-32.52,-5.78,-27.97,-1.82,-25.24,2.69,-23.28
2003-09-26 08:00,3.73,-31.14,10.60,16.81,8.31,16.08,8.31,16.08,8.31,16.08,8.31,16.08,8.31,16.08,8.31,16.08,8.31,16.08,8.31,16.08,8.31,16.08,8.31,16.08,8.31,16.08,8.31,16.08,8.31,16.08,8.31,16.08,8.31,16.08,8.31,16.08,8.31,16.08,8.31,16.08,8.31,16.08
2003-09-26 09:00,8.31,16.08,8.31,16.08,8.31,16.08,8.31,16.08,8.31,16.08,8.31,16.08,8.31,16.08,8.31,16.08,8.31,16.08,8.31,16.08,8.31,16.08,8.31,16.08,8.31,16.08,8.31,16.08,8.31,16.08,8.31,16.08,8.31,16.08,8.31,16.08,8.31,16.08,8.31,16.08,8.31,16.08
2003-09-26 10:00,-3.99,-19.11,-0.35,-14.38,2.64,-8.61,-1.12,-5.71,-5.72,-4.76,-9.98,-1.61,-12.00,1.11,-12.33,2.79,-9.71,2.15,-8.89,2.21,-10.42,1.09,-9.01,0.59,-6.24,3.78,-1.18,4.35,1.29,4.51,2.26,3.13,3.99,2.95,3.93,3.14,4.56,5.13,3.68,5.90,2.57,7.75
2003-09-26 11:00,0.78,-12.66,3.99,-9.22,1.47,-3.94,-3.44,0.27,-5.87,3.59,-7.37,6.99,-8.96,9.01,-8.86,9.35,-8.28,10.17,-6.92,9.86,-5.21,10.09,-3.36,9.22,0.40,8.31,8.39,9.91,12.95,13.05,15.04,13.40,15.02,16.12,11.33,16.83,8.91,15.85,5.12,16.22,4.00,15.13
2003-09-26 12:00,-1.67,5.24,-3.60,9.66,-5.48,10.95,-5.10,18.32,-5.21,21.64,-4.84,23.44,-3.71,22.85,-1.93,21.53,-1.27,21.11,-0.55,20.50,-0.88,19.56,0.89,19.60,3.37,18.08,6.25,15.95,8.96,15.03,10.91,16.49,12.81,19.09,16.92,23.97,18.46,27.39,20.76,29.70,21.05,29.79
2003-09-26 13:00,-1.28,3.37,5.66,2.64,4.82,3.64,6.06,8.65,5.98,16.81,5.67,22.06,4.35,22.27,3.55,21.81,3.01,21.53,1.89,20.75,1.37,20.06,1.21,19.28,2.60,22.13,5.23,24.44,8.26,26.14,10.81,27.69,11.88,29.60,12.91,28.99,13.12,28.32,12.34,26.81,9.15,24.32
2003-09-26 14:00,-4.83,-6.58,-3.81,-5.83,-3.64,-5.04,-1.98,-3.67,-2.62,0.00,-2.20,5.91,-3.00,12.06,-4.01,12.58,-3.92,11.66,-2.72,12.15,-3.41,12.35,-3.69,12.89,-2.40,14.14,0.60,16.88,1.67,16.49,2.28,14.58,2.08,16.20,3.45,16.84,6.96,17.02,8.15,15.93,5.59,13.43
2003-09-26 15:00,-3.79,-25.98,-4.72,-19.45,-3.03,-11.57,-2.27,-9.01,-5.51,-5.43,-5.49,-6.16,-5.73,-7.39,-5.42,-7.71,-4.43,-7.50,-4.81,-6.99,-4.57,-6.07,-5.29,-5.15,-4.66,-3.48,-3.84,-1.12,-4.30,-0.01,-4.31,-0.32,-3.33,-0.75,-2.26,-0.82,-2.23,-1.24,-3.74,-3.08,-5.20,-3.12
2003-09-26 16:00,-34.36,-26.90,-27.11,-29.21,-14.92,-23.33,-14.77,-26.43,-13.02,-20.73,-11.12,-15.82,-11.39,-14.65,-11.72,-15.59,-12.73,-15.39,-11.77,-14.77,-11.36,-14.74,-11.32,-14.21,-12.41,-12.45,-13.23,-10.51,-12.55,-6.41,-11.43,-3.64,-11.81,-3.13,-12.01,-4.14,-12.86,-6.41,-13.73,-7.63,-14.64,-9.39
2003-09-26 17:00,-34.43,-41.82,-34.25,-40.40,-23.73,-31.59,-24.03,-42.18,-18.35,-35.97,-15.72,-30.72,-15.02,-30.29,-12.92,-29.94,-10.17,-29.69,-8.54,-28.54,-9.83,-28.11,-9.58,-27.92,-9.10,-27.46,-9.39,-26.19,-10.49,-23.07,-11.64,-19.14,-13.19,-16.59,-13.10,-16.87,-12.46,-16.56,-12.10,-18.34,-12.05,-21.15
2003-09-26 18:00,-29.29,-38.19,-24.86,-37.94,-14.52,-26.56,-17.50,-36.01,-17.85,-36.23,-16.94,-34.47,-17.49,-33.07,-18.49,-32.23,-19.20,-31.31,-18.47,-30.97,-16.75,-30.11,-15.96,-29.64,-15.35,-29.24,-15.37,-28.19,-13.71,-27.14,-13.47,-25.91,-13.78,-22.97,-13.97,-23.03,-12.66,-26.81,-9.23,-30.33,-7.52,-30.10
2003-09-26 19:00,-24.40,-41.36,-20.87,-39.92,-12.42,-27.89,-14.12,-41.34,-15.08,-41.96,-16.82,-40.10,-17.47,-38.73,-18.44,-35.68,-18.96,-34.38,-20.15,-33.60,-20.96,-32.39,-20.86,-32.36,-22.63,-32.08,-27.03,-32.12,-30.39,-28.47,-28.87,-23.37,-25.87,-18.95,-24.22,-15.90,-23.19,-15.16,-24.29,-14.67,-21.88,-14.00
2003-09-26 20:00,-24.54,-42.87,-23.23,-41.72,-18.35,-28.72,-20.02,-35.98,-19.86,-37.81,-18.47,-37.58,-18.09,-38.09,-17.63,-39.20,-17.43,-38.19,-16.12,-35.05,-16.20,-33.50,-18.33,-27.78,-19.98,-23.26,-20.72,-17.31,-18.57,-12.21,-16.82,-9.45,-15.82,-9.66,-13.64,-10.22,-11.75,-10.88,-10.72,-12.13,-9.95,-13.24
2003-09-26 21:00,8.31,16.08,8.31,16.08,8.31,16.08,8.31,16.08,8.31,16.08,8.31,16.08,8.31,16.08,8.31,16.08,8.31,16.08,8.31,16.08,8.31,16.08,8.31,16.08,8.31,16.08,8.31,16.08,8.31,16.08,8.31,16.08,8.31,16.08,8.31,16.08,8.31,16.08,8.31,16.08,8.31,16.08
2003-09-26 22:00,8.31,16.08,8.31,16.08,8.31,16.08,8.31,16.08,8.31,16.08,8.31,16.08,8.31,16.08,8.31,16.08,8.31,16.08,8.31,16.08,8.31,16.08,8.31,16.08,8.31,16.08,8.31,16.08,8.31,16.08,8.31,16.08,8.31,16.08,8.31,16.08,8.31,16.08,8.31,16.08,8.31,16.08
2003-09-26 23:00,8.31,16.08,8.31,16.08,8.31,16.08,8.31,16.08,8.31,16.08,8.31,16.08,8.31,16.08,8.31,16.08,8.31,16.08,8.31,16.08,8.31,16.08,8.31,16.08,8.31,16.08,8.31,16.08,8.31,16.08,8.31,16.08,8.31,16.08,8.31,16.08,8.31,16.08,8.31,16.08,8.31,16.08
2003-09-27 00:00,8.31,16.08,8.31,16.08,8.31,16.08,8.31,16.08,8.31,16.08,8.31,16.08,8.31,16.08,8.31,16.08,8.31,16.08,8.31,16.08,8.31,16.08,8.31,16.08,8.31,16.08,8.31,16.08,8.31,16.08,8.31,16.08,8.31,16.08,8.31,16.08,8.31,16.08,8.31,16.08,8.31,16.08
2003-09-27 01:00,8.31,16.08,8.31,16.08,8.31,16.08,8.31,16.08,8.31,16.08,8.31,16.08,8.31,16.08,8.31,16.08,8.31,16.08,8.31,16.08,8.31,16.08,8.31,16.08,8.31,16.08,8.31,16.08,8.31,16.08,8.31,16.08,8.31,16.08,8.31,16.08,8.31,16.08,8.31,16.08,8.31,16.08
2003-09-27 02:00,8.31,16.08,8.31,16.08,8.31,16.08,8.31,16.08,8.31,16.08,8.31,16.08,8.31,16.08,8.31,16.08,8.31,16.08,8.31,16.08,8.31,16.08,8.31,16.08,8.31,16.08,8.31,16.08,8.31,16.08,8.31,16.08,8.31,16.08,8.31,16.08,8.31,16.08,8.31,16.08,8.31,16.08
2003-09-27 03:00,8.31,16.08,8.31,16.08,8.31,16.08,8.31,16.08,8.31,16.08,8.31,16.08,8.31,16.08,8.31,16.08,8.31,16.08,8.31,16.08,8.31,16.08,8.31,16.08,8.31,16.08,8.31,16.08,8.31,16.08,8.31,16.08,8.31,16.08,8.31,16.08,8.31,16.08,8.31,16.08,8.31,16.08
2003-09-27 04:00,8.31,16.08,8.31,16.08,8.31,16.08,8.31,16.08,8.31,16.08,8.31,16.08,8.31,16.08,8.31,16.08,8.31,16.08,8.31,16.08,8.31,16.08,8.31,16.08,8.31,16.08,8.31,16.08,8.31,16.08,8.31,16.08,8.31,16.08,8.31,16.08,8.31,16.08,8.31,16.08,8.31,16.08
2003-09-27 05:00,8.31,16.08,8.31,16.08,8.31,16.08,8.31,16.08,8.31,16.08,8.31,16.08,8.31,16.08,8.31,16.08,8.31,16.08,8.31,16.08,8.31,16.08,8.31,16.08,8.31,16.08,8.31,16.08,8.31,16.08,8.31,16.08,8.31,16.08,8.31,16.08,8.31,16.08,8.31,16.08,8.31,16.08
2003-09-27 06:00,8.31,16.08,8.31,16.08,8.31,16.08,8.31,16.08,8.31,16.08,8.31,16.08,8.31,16.08,8.31,16.08,8.31,16.08,8.31,16.08,8.31,16.08,8.31,16.08,8.31,16.08,8.31,16.08,8.31,16.08,8.31,16.08,8.31,16.08,8.31,16.08,8.31,16.08,8.31,16.08,8.31,16.08
2003-09-27 07:00,8.31,16.08,8.31,16.08,8.31,16.08,8.31,16.08,8.31,16.08,8.31,16.08,8.31,16.08,8.31,16.08,8.31,16.08,8.31,16.08,8.31,16.08,8.31,16.08,8.31,16.08,8.31,16.08,8.31,16.08,8.31,16.08,8.31,16.08,8.31,16.08,8.31,16.08,8.31,16.08,8.31,16.08
2003-09-27 08:00,8.31,16.08,8.31,16.08,8.31,16.08,8.31,16.08,8.31,16.08,8.31,16.08,8.31,16.08,8.31,16.08,8.31,16.08,8.31,16.08,8.31,16.08,8.31,16.08,8.31,16.08,8.31,16.08,8.31,16.08,8.31,16.08,8.31,16.08,8.31,16.08,8.31,16.08,8.31,16.08,8.31,16.08
2003-09-27 09:00,8.31,16.08,8.31,16.08,8.31,16.08,8.31,16.08,8.31,16.08,8.31,16.08,8.31,16.08,8.31,16.08,8.31,16.08,8.31,16.08,8.31,16.08,8.31,16.08,8.31,16.08,8.31,16.08,8.31,16.08,8.31,16.08,8.31,16.08,8.31,16.08,8.31,16.08,8.31,16.08,8.31,16.08
2003-09-27 11:00,8.31,16.08,8.31,16.08,8.31,16.08,8.31,16.08,8.31,16.08,8.31,16.08,8.31,16.08,8.31,16.08,8.31,16.08,8.31,16.08,8.31,16.08,8.31,16.08,8.31,16.08,8.31,16.08,8.31,16.08,8.31,16.08,8.31,16.08,8.31,16.08,8.31,16.08,8.31,16.08,8.31,16.08
2003-09-27 12:00,8.31,16.08,8.31,16.08,8.31,16.08,8.31,16.08,8.31,16.08,8.31,16.08,8.31,16.08,8.31,16.08,8.31,16.08,8.31,16.08,8.31,16.08,8.31,16.08,8.31,16.08,8.31,16.08,8.31,16.08,8.31,16.08,8.31,16.08,8.31,16.08,8.31,16.08,8.31,16.08,8.31,16.08
2003-09-27 13:00,-17.40,16.08,-15.61,15.39,-12.60,13.51,-16.03,14.73,-17.68,14.31,-17.54,12.57,-15.77,10.30,-15.63,9.19,-15.01,10.54,-9.67,12.24,-6.69,13.09,-4.23,14.60,-3.55,13.46,-2.74,12.56,-0.35,11.96,2.26,10.69,6.42,9.81,11.98,8.85,17.39,6.69,18.64,5.41,18.01,5.74
2003-09-27 14:00,-10.04,24.93,-8.16,21.33,-5.87,15.13,-7.99,17.50,-9.95,19.71,-13.07,20.92,-14.84,23.19,-14.22,24.23,-13.50,24.25,-11.14,22.79,-11.68,20.21,-11.95,16.76,-10.54,13.33,-5.08,10.03,-0.37,8.07,2.63,7.56,7.50,7.74,12.86,8.40,16.38,6.58,15.85,2.95,13.60,-0.18
2003-09-27 15:00,8.31,16.08,8.31,16.08,8.31,16.08,8.31,16.08,8.31,16.08,8.31,16.08,8.31,16.08,8.31,16.08,8.31,16.08,8.31,16.08,8.31,16.08,8.31,16.08,8.31,16.08,8.31,16.08,8.31,16.08,8.31,16.08,8.31,16.08,8.31,16.08,8.31,16.08,8.31,16.08,8.31,16.08
2003-09-27 16:00,8.31,16.08,8.31,16.08,8.31,16.08,8.31,16.08,8.31,16.08,8.31,16.08,8.31,16.08,8.31,16.08,8.31,16.08,8.31,16.08,8.31,16.08,8.31,16.08,8.31,16.08,8.31,16.08,8.31,16.08,8.31,16.08,8.31,16.08,8.31,16.08,8.31,16.08,8.31,16.08,8.31,16.08
2003-09-27 17:00,8.31,16.08,8.31,16.08,8.31,16.08,8.31,16.08,8.31,16.08,8.31,16.08,8.31,16.08,8.31,16.08,8.31,16.08,8.31,16.08,8.31,16.08,8.31,16.08,8.31,16.08,8.31,16.08,8.31,16.08,8.31,16.08,8.31,16.08,8.31,16.08,8.31,16.08,8.31,16.08,8.31,16.08
2003-09-27 18:00,8.31,16.08,8.31,16.08,8.31,16.08,8.31,16.08,8.31,16.08,8.31,16.08,8.31,16.08,8.31,16.08,8.31,16.08,8.31,16.08,8.31,16.08,8.31,16.08,8.31,16.08,8.31,16.08,8.31,16.08,8.31,16.08,8.31,16.08,8.31,16.08,8.31,16.08,8.31,16.08,8.31,16.08
2003-09-27 19:00,8.31,16.08,8.31,16.08,8.31,16.08,8.31,16.08,8.31,16.08,8.31,16.08,8.31,16.08,8.31,16.08,8.31,16.08,8.31,16.08,8.31,16.08,8.31,16.08,8.31,16.08,8.31,16.08,8.31,16.08,8.31,16.08,8.31,16.08,8.31,16.08,8.31,16.08,8.31,16.08,8.31,16.08
2003-09-27 20:00,8.31,16.08,8.31,16.08,8.31,16.08,8.31,16.08,8.31,16.08,8.31,16.08,8.31,16.08,8.31,16.08,8.31,16.08,8.31,16.08,8.31,16.08,8.31,16.08,8.31,16.08,8.31,16.08,8.31,16.08,8.31,16.08,8.31,16.08,8.31,16.08,8.31,16.08,8.31,16.08,8.31,16.08
2003-09-27 21:00,8.31,16.08,8.31,16.08,8.31,16.08,8.31,16.08,8.31,16.08,8.31,16.08,8.31,16.08,8.31,16.08,8.31,16.08,8.31,16.08,8.31,16.08,8.31,16.08,8.31,16.08,8.31,16.08,8.31,16.08,8.31,16.08,8.31,16.08,8.31,16.08,8.31,16.08,8.31,16.08,8.31,16.08
2003-09-27 22:00,8.31,16.08,8.31,16.08,8.31,16.08,8.31,16.08,8.31,16.08,8.31,16.08,8.31,16.08,8.31,16.08,8.31,16.08,8.31,16.08,8.31,16.08,8.31,16.08,8.31,16.08,8.31,16.08,8.31,16.08,8.31,16.08,8.31,16.08,8.31,16.08,8.31,16.08,8.31,16.08,8.31,16.08
2003-09-27 23:00,8.31,16.08,8.31,16.08,8.31,16.08,8.31,16.08,8.31,16.08,8.31,16.08,8.31,16.08,8.31,16.08,8.31,16.08,8.31,16.08,8.31,16.08,8.31,16.08,8.31,16.08,8.31,16.08,8.31,16.08,8.31,16.08,8.31,16.08,8.31,16.08,8.31,16.08,8.31,16.08,8.31,16.08
2003-09-28 00:00,8.31,16.08,8.31,16.08,8.31,16.08,8.31,16.08,8.31,16.08,8.31,16.08,8.31,16.08,8.31,16.08,8.31,16.08,8.31,16.08,8.31,16.08,8.31,16.08,8.31,16.08,8.31,16.08,8.31,16.08,8.31,16.08,8.31,16.08,8.31,16.08,8.31,16.08,8.31,16.08,8.31,16.08
2003-09-28 01:00,8.31,16.08,8.31,16.08,8.31,16.08,8.31,16.08,8.31,16.08,8.31,16.08,8.31,16.08,8.31,16.08,8.31,16.08,8.31,16.08,8.31,16.08,8.31,16.08,8.31,16.08,8.31,16.08,8.31,16.08,8.31,16.08,8.31,16.08,8.31,16.08,8.31,16.08,8.31,16.08,8.31,16.08
2003-09-28 02:00,8.31,16.08,8.31,16.08,8.31,16.08,8.31,16.08,8.31,16.08,8.31,16.08,8.31,16.08,8.31,16.08,8.31,16.08,8.31,16.08,8.31,16.08,8.31,16.08,8.31,16.08,8.31,16.08,8.31,16.08,8.31,16.08,8.31,16.08,8.31,16.08,8.31,16.08,8.31,16.08,8.31,16.08
2003-09-28 03:00,8.31,16.08,8.31,16.08,8.31,16.08,8.31,16.08,8.31,16.08,8.31,16.08,8.31,16.08,8.31,16.08,8.31,16.08,8.31,16.08,8.31,16.08,8.31,16.08,8.31,16.08,8.31,16.08,8.31,16.08,8.31,16.08,8.31,16.08,8.31,16.08,8.31,16.08,8.31,16.08,8.31,16.08
2003-09-28 04:00,8.31,16.08,8.31,16.08,8.31,16.08,8.31,16.08,8.31,16.08,8.31,16.08,8.31,16.08,8.31,16.08,8.31,16.08,8.31,16.08,8.31,16.08,8.31,16.08,8.31,16.08,8.31,16.08,8.31,16.08,8.31,16.08,8.31,16.08,8.31,16.08,8.31,16.08,8.31,16.08,8.31,16.08
2003-09-28 05:00,8.31,16.08,8.31,16.08,8.31,16.08,8.31,16.08,8.31,16.08,8.31,16.08,8.31,16.08,8.31,16.08,8.31,16.08,8.31,16.08,8.31,16.08,8.31,16.08,8.31,16.08,8.31,16.08,8.31,16.08,8.31,16.08,8.31,16.08,8.31,16.08,8.31,16.08,8.31,16.08,8.31,16.08
2003-09-28 06:00,8.31,16.08,8.31,16.08,8.31,16.08,8.31,16.08,8.31,16.08,8.31,16.08,8.31,16.08,8.31,16.08,8.31,16.08,8.31,16.08,8.31,16.08,8.31,16.08,8.31,16.08,8.31,16.08,8.31,16.08,8.31,16.08,8.31,16.08,8.31,16.08,8.31,16.08,8.31,16.08,8.31,16.08
2003-09-28 07:00,8.31,16.08,8.31,16.08,8.31,16.08,8.31,16.08,8.31,16.08,8.31,16.08,8.31,16.08,8.31,16.08,8.31,16.08,8.31,16.08,8.31,16.08,8.31,16.08,8.31,16.08,8.31,16.08,8.31,16.08,8.31,16.08,8.31,16.08,8.31,16.08,8.31,16.08,8.31,16.08,8.31,16.08
2003-09-28 08:00,8.31,16.08,8.31,16.08,8.31,16.08,8.31,16.08,8.31,16.08,8.31,16.08,8.31,16.08,8.31,16.08,8.31,16.08,8.31,16.08,8.31,16.08,8.31,16.08,8.31,16.08,8.31,16.08,8.31,16.08,8.31,16.08,8.31,16.08,8.31,16.08,8.31,16.08,8.31,16.08,8.31,16.08
2003-09-28 09:00,8.31,16.08,8.31,16.08,8.31,16.08,8.31,16.08,8.31,16.08,8.31,16.08,8.31,16.08,8.31,16.08,8.31,16.08,8.31,16.08,8.31,16.08,8.31,16.08,8.31,16.08,8.31,16.08,8.31,16.08,8.31,16.08,8.31,16.08,8.31,16.08,8.31,16.08,8.31,16.08,8.31,16.08
2003-09-28 10:00,8.31,16.08,8.31,16.08,8.31,16.08,8.31,16.08,8.31,16.08,8.31,16.08,8.31,16.08,8.31,16.08,8.31,16.08,8.31,16.08,8.31,16.08,8.31,16.08,8.31,16.08,8.31,16.08,8.31,16.08,8.31,16.08,8.31,16.08,8.31,16.08,8.31,16.08,8.31,16.08,8.31,16.08
2003-09-28 11:00,8.31,16.08,8.31,16.08,8.31,16.08,8.31,16.08,8.31,16.08,8.31,16.08,8.31,16.08,8.31,16.08,8.31,16.08,8.31,16.08,8.31,16.08,8.31,16.08,8.31,16.08,8.31,16.08,8.31,16.08,8.31,16.08,8.31,16.08,8.31,16.08,8.31,16.08,8.31,16.08,8.31,16.08
2003-09-28 12:00,8.31,16.08,8.31,16.08,8.31,16.08,8.31,16.08,8.31,16.08,8.31,16.08,8.31,16.08,8.31,16.08,8.31,16.08,8.31,16.08,8.31,16.08,8.31,16.08,8.31,16.08,8.31,16.08,8.31,16.08,8.31,16.08,8.31,16.08,8.31,16.08,8.31,16.08,8.31,16.08,8.31,16.08
2003-09-28 13:00,8.31,16.08,8.31,16.08,8.31,16.08,8.31,16.08,8.31,16.08,8.31,16.08,8.31,16.08,8.31,16.08,8.31,16.08,8.31,16.08,8.31,16.08,8.31,16.08,8.31,16.08,8.31,16.08,8.31,16.08,8.31,16.08,8.31,16.08,8.31,16.08,8.31,16.08,8.31,16.08,8.31,16.08
2003-09-28 14:00,8.31,16.08,8.31,16.08,8.31,16.08,8.31,16.08,8.31,16.08,8.31,16.08,8.31,16.08,8.31,16.08,8.31,16.08,8.31,16.08,8.31,16.08,8.31,16.08,8.31,16.08,8.31,16.08,8.31,16.08,8.31,16.08,8.31,16.08,8.31,16.08,8.31,16.08,8.31,16.08,8.31,16.08
2003-09-28 15:00,8.31,16.08,8.31,16.08,8.31,16.08,8.31,16.08,8.31,16.08,8.31,16.08,8.31,16.08,8.31,16.08,8.31,16.08,8.31,16.08,8.31,16.08,8.31,16.08,8.31,16.08,8.31,16.08,8.31,16.08,8.31,16.08,8.31,16.08,8.31,16.08,8.31,16.08,8.31,16.08,8.31,16.08
2003-09-28 16:00,8.31,16.08,8.31,16.08,8.31,16.08,8.31,16.08,8.31,16.08,8.31,16.08,8.31,16.08,8.31,16.08,8.31,16.08,8.31,16.08,8.31,16.08,8.31,16.08,8.31,16.08,8.31,16.08,8.31,16.08,8.31,16.08,8.31,16.08,8.31,16.08,8.31,16.08,8.31,16.08,8.31,16.08
2003-09-28 17:00,8.31,16.08,8.31,16.08,8.31,16.08,8.31,16.08,8.31,16.08,8.31,16.08,8.31,16.08,8.31,16.08,8.31,16.08,8.31,16.08,8.31,16.08,8.31,16.08,8.31,16.08,8.31,16.08,8.31,16.08,8.31,16.08,8.31,16.08,8.31,16.08,8.31,16.08,8.31,16.08,8.31,16.08
2003-09-28 18:00,8.31,16.08,8.31,16.08,8.31,16.08,8.31,16.08,8.31,16.08,8.31,16.08,8.31,16.08,8.31,16.08,8.31,16.08,8.31,16.08,8.31,16.08,8.31,16.08,8.31,16.08,8.31,16.08,8.31,16.08,8.31,16.08,8.31,16.08,8.31,16.08,8.31,16.08,8.31,16.08,8.31,16.08
2003-09-28 19:00,8.31,16.08,8.31,16.08,8.31,16.08,8.31,16.08,8.31,16.08,8.31,16.08,8.31,16.08,8.31,16.08,8.31,16.08,8.31,16.08,8.31,16.08,8.31,16.08,8.31,16.08,8.31,16.08,8.31,16.08,8.31,16.08,8.31,16.08,8.31,16.08,8.31,16.08,8.31,16.08,8.31,16.08
2003-09-28 20:00,8.31,16.08,8.31,16.08,8.31,16.08,8.31,16.08,8.31,16.08,8.31,16.08,8.31,16.08,8.31,16.08,8.31,16.08,8.31,16.08,8.31,16.08,8.31,16.08,8.31,16.08,8.31,16.08,8.31,16.08,8.31,16.08,8.31,16.08,8.31,16.08,8.31,16.08,8.31,16.08,8.31,16.08
2003-09-28 21:00,8.31,16.08,8.31,16.08,8.31,16.08,8.31,16.08,8.31,16.08,8.31,16.08,8.31,16.08,8.31,16.08,8.31,16.08,8.31,16.08,8.31,16.08,8.31,16.08,8.31,16.08,8.31,16.08,8.31,16.08,8.31,16.08,8.31,16.08,8.31,16.08,8.31,16.08,8.31,16.08,8.31,16.08
2003-09-28 22:00,8.31,16.08,8.31,16.08,8.31,16.08,8.31,16.08,8.31,16.08,8.31,16.08,8.31,16.08,8.31,16.08,8.31,16.08,8.31,16.08,8.31,16.08,8.31,16.08,8.31,16.08,8.31,16.08,8.31,16.08,8.31,16.08,8.31,16.08,8.31,16.08,8.31,16.08,8.31,16.08,8.31,16.08
2003-09-28 23:00,8.31,16.08,8.31,16.08,8.31,16.08,8.31,16.08,8.31,16.08,8.31,16.08,8.31,16.08,8.31,16.08,8.31,16.08,8.31,16.08,8.31,16.08,8.31,16.08,8.31,16.08,8.31,16.08,8.31,16.08,8.31,16.08,8.31,16.08,8.31,16.08,8.31,16.08,8.31,16.08,8.31,16.08
2003-09-29 00:00,8.31,16.08,8.31,16.08,8.31,16.08,8.31,16.08,8.31,16.08,8.31,16.08,8.31,16.08,8.31,16.08,8.31,16.08,8.31,16.08,8.31,16.08,8.31,16.08,8.31,16.08,8.31,16.08,8.31,16.08,8.31,16.08,8.31,16.08,8.31,16.08,8.31,16.08,8.31,16.08,8.31,16.08
2003-09-29 01:00,8.31,16.08,8.31,16.08,8.31,16.08,8.31,16.08,8.31,16.08,8.31,16.08,8.31,16.08,8.31,16.08,8.31,16.08,8.31,16.08,8.31,16.08,8.31,16.08,8.31,16.08,8.31,16.08,8.31,16.08,8.31,16.08,8.31,16.08,8.31,16.08,8.31,16.08,8.31,16.08,8.31,16.08
2003-09-29 02:00,8.31,16.08,8.31,16.08,8.31,16.08,8.31,16.08,8.31,16.08,8.31,16.08,8.31,16.08,8.31,16.08,8.31,16.08,8.31,16.08,8.31,16.08,8.31,16.08,8.31,16.08,8.31,16.08,8.31,16.08,8.31,16.08,8.31,16.08,8.31,16.08,8.31,16.08,8.31,16.08,8.31,16.08
2003-09-29 03:00,8.31,16.08,8.31,16.08,8.31,16.08,8.31,16.08,8.31,16.08,8.31,16.08,8.31,16.08,8.31,16.08,8.31,16.08,8.31,16.08,8.31,16.08,8.31,16.08,8.31,16.08,8.31,16.08,8.31,16.08,8.31,16.08,8.31,16.08,8.31,16.08,8.31,16.08,8.31,16.08,8.31,16.08
2003-09-29 04:00,8.31,16.08,8.31,16.08,8.31,16.08,8.31,16.08,8.31,16.08,8.31,16.08,8.31,16.08,8.31,16.08,8.31,16.08,8.31,16.08,8.31,16.08,8.31,16.08,8.31,16.08,8.31,16.08,8.31,16.08,8.31,16.08,8.31,16.08,8.31,16.08,8.31,16.08,8.31,16.08,8.31,16.08
2003-09-29 05:00,8.31,16.08,8.31,16.08,8.31,16.08,8.31,16.08,8.31,16.08,8.31,16.08,8.31,16.08,8.31,16.08,8.31,16.08,8.31,16.08,8.31,16.08,8.31,16.08,8.31,16.08,8.31,16.08,8.31,16.08,8.31,16.08,8.31,16.08,8.31,16.08,8.31,16.08,8.31,16.08,8.31,16.08
2003-09-29 06:00,8.31,16.08,8.31,16.08,8.31,16.08,8.31,16.08,8.31,16.08,8.31,16.08,8.31,16.08,8.31,16.08,8.31,16.08,8.31,16.08,8.31,16.08,8.31,16.08,8.31,16.08,8.31,16.08,8.31,16.08,8.31,16.08,8.31,16.08,8.31,16.08,8.31,16.08,8.31,16.08,8.31,16.08
2003-09-29 07:00,8.31,16.08,8.31,16.08,8.31,16.08,8.31,16.08,8.31,16.08,8.31,16.08,8.31,16.08,8.31,16.08,8.31,16.08,8.31,16.08,8.31,16.08,8.31,16.08,8.31,16.08,8.31,16.08,8.31,16.08,8.31,16.08,8.31,16.08,8.31,16.08,8.31,16.08,8.31,16.08,8.31,16.08
2003-09-29 08:00,8.31,16.08,8.31,16.08,8.31,16.08,8.31,16.08,8.31,16.08,8.31,16.08,8.31,16.08,8.31,16.08,8.31,16.08,8.31,16.08,8.31,16.08,8.31,16.08,8.31,16.08,8.31,16.08,8.31,16.08,8.31,16.08,8.31,16.08,8.31,16.08,8.31,16.08,8.31,16.08,8.31,16.08